User: anonymous   Login
Location: Br�ttisellen
(47.4227°N, 8.6287°E)
Time: 17:26:50
(UTC+00:00)
Language:

Cosmos 2341 Rocket - Orbit

View from above orbital plane
View from above orbital plane
View from above satellite
View from above satellite

Ground track
Ground track

The orbit data is extracted from the following two-line orbital elements,

1 24773U 97017B   20185.48467138  .00000015  00000-0  34741-7 0  9996
2 24773  82.9218 269.1160 0025807  89.3279 281.3617 13.73653257163606
Epoch (UTC): 03 July 2020 11:37:55
Eccentricity: 0.0025807
inclination: 82.9218°
perigee height: 967 km
apogee height: 1005 km
right ascension of ascending node: 269.1160°
argument of perigee: 89.3279°
revolutions per day: 13.73653257
mean anomaly at epoch: 281.3617°
orbit number at epoch: 16360

The dashed part of the orbit path shows where the satellite is in the earth's shadow,  

DLR